When you browse on this site, cookies collect data to enhance your experience and personalize the content and advertising you see.
Visit our Privacy Policy to learn more. By continuing to use the site, you agree to this use of cookies and data.
  • Em Portugal
  • Lista de países
  • Para 7 dias
  • Temperatura da água
  • Mapas de satélite
  • Mapa do tempo
  • Widgets de tempo
  • user-avatar
    Iniciar Sessão

    Previsão horária em Senislawice

    Hoje, 26 Junho, Quarta-feira

    Tempo Temperatura Precipitação Vento Pressão Humidade
    00:00 +23°C° 0 mm 2 m/s 753 mmHg 95%
    01:00 +21°C° 0 mm 2 m/s 753 mmHg 95%
    02:00 +22°C° 0 mm 1 m/s 753 mmHg 95%
    03:00 +22°C° 0 mm 1 m/s 752 mmHg 94%
    04:00 +22°C° 0 mm 1 m/s 752 mmHg 94%
    05:00 +23°C° 0 mm 1 m/s 752 mmHg 89%
    06:00 +25°C° 0 mm 1 m/s 752 mmHg 84%
    07:00 +27°C° 0 mm 1 m/s 752 mmHg 79%
    08:00 +28°C° 0 mm 1 m/s 752 mmHg 73%
    09:00 +30°C° 0 mm 1 m/s 752 mmHg 68%
    10:00 +31°C° 0 mm 1 m/s 752 mmHg 62%
    11:00 +32°C° 0 mm 2 m/s 752 mmHg 58%
    12:00 +34°C° 0 mm 2 m/s 751 mmHg 53%
    13:00 +35°C° 0 mm 2 m/s 751 mmHg 48%
    14:00 +35°C° 0 mm 3 m/s 751 mmHg 49%
    15:00 +35°C° 0 mm 3 m/s 750 mmHg 50%
    16:00 +35°C° 0 mm 3 m/s 749 mmHg 50%
    17:00 +33°C° 0 mm 3 m/s 749 mmHg 57%
    18:00 +31°C° 0 mm 3 m/s 749 mmHg 63%
    19:00 +29°C° 0 mm 3 m/s 749 mmHg 69%
    20:00 +28°C° 0 mm 3 m/s 748 mmHg 71%
    21:00 +27°C° 0 mm 4 m/s 748 mmHg 73%
    22:00 +26°C° 0 mm 4 m/s 748 mmHg 75%
    23:00 +26°C° 0.1 mm 4 m/s 748 mmHg 77%

    Amanhã, 27 Junho, Quinta-feira

    Tempo Temperatura Precipitação Vento Pressão Humidade
    00:00 +25°C° 0.1 mm 4 m/s 748 mmHg 79%
    01:00 +25°C° 0.1 mm 5 m/s 748 mmHg 81%
    02:00 +25°C° 1 mm 5 m/s 747 mmHg 84%
    03:00 +23°C° 1 mm 5 m/s 747 mmHg 88%
    04:00 +23°C° 1 mm 5 m/s 747 mmHg 91%
    05:00 +23°C° 0.3 mm 5 m/s 747 mmHg 90%
    06:00 +23°C° 0.3 mm 5 m/s 747 mmHg 88%
    07:00 +25°C° 0.3 mm 5 m/s 747 mmHg 87%
    08:00 +24°C° 0.1 mm 6 m/s 747 mmHg 80%
    09:00 +24°C° 0.1 mm 7 m/s 747 mmHg 73%
    10:00 +26°C° 0.1 mm 8 m/s 747 mmHg 66%
    11:00 +26°C° 0 mm 8 m/s 747 mmHg 60%
    12:00 +26°C° 0 mm 8 m/s 747 mmHg 53%
    13:00 +26°C° 0 mm 8 m/s 746 mmHg 46%
    14:00 +26°C° 0 mm 8 m/s 746 mmHg 47%
    15:00 +24°C° 0 mm 7 m/s 746 mmHg 48%
    16:00 +24°C° 0 mm 7 m/s 746 mmHg 49%
    17:00 +22°C° 0 mm 6 m/s 746 mmHg 56%
    18:00 +21°C° 0 mm 5 m/s 746 mmHg 62%
    19:00 +20°C° 0 mm 5 m/s 746 mmHg 68%
    20:00 +19°C° 0 mm 4 m/s 746 mmHg 71%
    21:00 +18°C° 0 mm 4 m/s 747 mmHg 74%
    22:00 +17°C° 0 mm 4 m/s 747 mmHg 76%
    23:00 +15°C° 0 mm 4 m/s 747 mmHg 81%

    Depois de amanhã, 28 Junho, Sexta-feira

    Tempo Temperatura Precipitação Vento Pressão Humidade
    00:00 +15°C° 0 mm 4 m/s 747 mmHg 86%
    01:00 +14°C° 0 mm 4 m/s 748 mmHg 90%
    02:00 +14°C° 0 mm 4 m/s 748 mmHg 92%
    03:00 +13°C° 0 mm 4 m/s 748 mmHg 94%
    04:00 +13°C° 0 mm 4 m/s 748 mmHg 95%
    05:00 +14°C° 0 mm 4 m/s 748 mmHg 86%
    06:00 +15°C° 0 mm 4 m/s 748 mmHg 76%
    07:00 +17°C° 0 mm 3 m/s 749 mmHg 67%
    08:00 +18°C° 0 mm 4 m/s 749 mmHg 62%
    09:00 +19°C° 0 mm 4 m/s 749 mmHg 56%
    10:00 +20°C° 0 mm 5 m/s 749 mmHg 51%
    11:00 +21°C° 0 mm 5 m/s 748 mmHg 51%
    12:00 +21°C° 0 mm 4 m/s 748 mmHg 52%
    13:00 +21°C° 0 mm 4 m/s 748 mmHg 52%
    14:00 +22°C° 0 mm 4 m/s 748 mmHg 53%
    15:00 +22°C° 0 mm 4 m/s 748 mmHg 54%
    16:00 +22°C° 0 mm 5 m/s 747 mmHg 55%
    17:00 +21°C° 0.3 mm 4 m/s 747 mmHg 64%
    18:00 +20°C° 0.3 mm 4 m/s 747 mmHg 73%
    19:00 +18°C° 0.3 mm 3 m/s 747 mmHg 81%
    20:00 +17°C° 0 mm 3 m/s 748 mmHg 81%
    21:00 +14°C° 0 mm 3 m/s 748 mmHg 81%
    22:00 +13°C° 0 mm 3 m/s 749 mmHg 80%
    23:00 +12°C° 0 mm 3 m/s 749 mmHg 82%

    29 Junho, Sábado

    Tempo Temperatura Precipitação Vento Pressão Humidade
    00:00 +11°C° 0 mm 3 m/s 749 mmHg 84%
    01:00 +10°C° 0 mm 3 m/s 749 mmHg 86%
    02:00 +10°C° 0 mm 3 m/s 749 mmHg 85%
    03:00 +10°C° 0 mm 3 m/s 749 mmHg 85%
    04:00 +9°C° 0 mm 3 m/s 750 mmHg 84%
    05:00 +11°C° 0 mm 3 m/s 750 mmHg 78%
    06:00 +13°C° 0 mm 4 m/s 750 mmHg 71%
    07:00 +15°C° 0 mm 4 m/s 750 mmHg 64%
    08:00 +18°C° 0 mm 4 m/s 750 mmHg 60%
    09:00 +19°C° 0 mm 5 m/s 750 mmHg 56%
    10:00 +21°C° 0 mm 5 m/s 750 mmHg 52%
    11:00 +22°C° 0 mm 5 m/s 750 mmHg 51%
    12:00 +22°C° 0 mm 5 m/s 749 mmHg 50%
    13:00 +23°C° 0 mm 5 m/s 749 mmHg 50%
    14:00 +23°C° 0 mm 4 m/s 749 mmHg 51%
    15:00 +23°C° 0 mm 4 m/s 749 mmHg 52%
    16:00 +23°C° 0 mm 4 m/s 749 mmHg 53%
    17:00 +22°C° 0 mm 3 m/s 749 mmHg 57%
    18:00 +21°C° 0 mm 2 m/s 749 mmHg 63%
    19:00 +20°C° 0 mm 2 m/s 749 mmHg 69%
    20:00 +19°C° 0 mm 2 m/s 749 mmHg 71%
    21:00 +19°C° 0 mm 1 m/s 749 mmHg 74%
    22:00 +16°C° 0 mm 1 m/s 749 mmHg 76%
    23:00 +16°C° 0 mm 2 m/s 749 mmHg 76%

    30 Junho, Domingo

    Tempo Temperatura Precipitação Vento Pressão Humidade
    00:00 +15°C° 0 mm 2 m/s 749 mmHg 76%
    01:00 +15°C° 0 mm 2 m/s 749 mmHg 76%
    02:00 +15°C° 0 mm 2 m/s 749 mmHg 77%
    03:00 +14°C° 0 mm 2 m/s 749 mmHg 78%
    04:00 +14°C° 0 mm 2 m/s 749 mmHg 79%
    05:00 +16°C° 0 mm 2 m/s 749 mmHg 74%
    06:00 +18°C° 0 mm 2 m/s 749 mmHg 69%
    07:00 +20°C° 0 mm 2 m/s 749 mmHg 64%
    08:00 +23°C° 0 mm 2 m/s 749 mmHg 58%
    09:00 +25°C° 0 mm 2 m/s 749 mmHg 53%
    10:00 +26°C° 0 mm 2 m/s 749 mmHg 47%
    11:00 +27°C° 0 mm 2 m/s 749 mmHg 45%
    12:00 +28°C° 0 mm 2 m/s 749 mmHg 43%
    13:00 +29°C° 0 mm 2 m/s 748 mmHg 41%
    14:00 +29°C° 0 mm 2 m/s 748 mmHg 42%
    15:00 +29°C° 0 mm 2 m/s 748 mmHg 42%
    16:00 +29°C° 0 mm 1 m/s 748 mmHg 43%
    17:00 +28°C° 0 mm 2 m/s 747 mmHg 50%
    18:00 +26°C° 0 mm 2 m/s 747 mmHg 58%
    19:00 +25°C° 0 mm 3 m/s 747 mmHg 66%
    20:00 +22°C° 0 mm 3 m/s 747 mmHg 71%
    21:00 +21°C° 0 mm 2 m/s 747 mmHg 75%
    22:00 +20°C° 0 mm 2 m/s 747 mmHg 80%
    23:00 +19°C° 0 mm 2 m/s 747 mmHg 82%

    1 Julho, Segunda-feira

    Tempo Temperatura Precipitação Vento Pressão Humidade
    00:00 +19°C° 0 mm 2 m/s 747 mmHg 84%
    01:00 +18°C° 0 mm 2 m/s 746 mmHg 85%
    02:00 +18°C° 0 mm 2 m/s 746 mmHg 87%
    03:00 +18°C° 0 mm 2 m/s 746 mmHg 89%
    04:00 +17°C° 0 mm 2 m/s 746 mmHg 90%
    05:00 +19°C° 0 mm 3 m/s 746 mmHg 83%
    06:00 +21°C° 0 mm 3 m/s 746 mmHg 75%
    07:00 +24°C° 0 mm 3 m/s 746 mmHg 67%
    08:00 +25°C° 0 mm 3 m/s 746 mmHg 63%
    09:00 +27°C° 0 mm 3 m/s 746 mmHg 60%
    10:00 +29°C° 0 mm 4 m/s 746 mmHg 56%
    11:00 +30°C° 0 mm 3 m/s 746 mmHg 54%
    12:00 +31°C° 0 mm 3 m/s 745 mmHg 52%
    13:00 +33°C° 0 mm 3 m/s 745 mmHg 50%
    14:00 +33°C° 0 mm 4 m/s 744 mmHg 50%
    15:00 +33°C° 0 mm 4 m/s 744 mmHg 51%
    16:00 +33°C° 0 mm 4 m/s 743 mmHg 51%
    17:00 +30°C° 1.2 mm 5 m/s 743 mmHg 62%
    18:00 +27°C° 1.2 mm 7 m/s 743 mmHg 74%
    19:00 +23°C° 1.2 mm 8 m/s 743 mmHg 85%
    20:00 +22°C° 1.2 mm 6 m/s 743 mmHg 87%
    21:00 +21°C° 1.2 mm 4 m/s 743 mmHg 90%
    22:00 +20°C° 1.2 mm 3 m/s 743 mmHg 93%
    23:00 +20°C° 0.5 mm 3 m/s 743 mmHg 94%
    Mostrar mais